KE8WAY Weather Reports


Display with metric or nautical units.
time (UTC)temp
F
wind
direction
speed
MPH
gust
MPH
rain 1hr
in
rain 24hr
in
rain mn
in
humidity
%
barometer
mb
20260903034008 80 210 6.0 6.0 0.00 0.00 0.00 84 1012.2
20260903033503 80 203 6.0 7.0 0.00 0.00 0.00 84 1012.3
20260903032958 80 218 7.0 7.0 0.00 0.00 0.00 85 1012.1
20260903032454 80 215 6.0 7.0 0.00 0.00 0.00 85 1012.1
20260903031948 80 219 6.0 7.0 0.00 0.00 0.00 85 1012.0
20260903031443 80 210 8.0 9.0 0.00 0.00 0.00 84 1012.0
20260903030938 80 224 7.0 9.0 0.00 0.00 0.00 85 1011.9
20260903030434 80 204 9.0 9.0 0.00 0.00 0.00 85 1011.8
20260903025930 80 210 8.0 9.0 0.00 0.00 0.00 85 1011.6
20260903025426 80 212 8.0 8.0 0.00 0.00 0.00 85 1011.8
20260903024921 80 227 7.0 7.0 0.00 0.00 0.00 85 1012.0
20260903024420 80 222 6.0 6.0 0.00 0.00 0.00 84 1012.1
20260903023914 80 211 6.0 7.0 0.00 0.00 0.00 85 1012.1
20260903023405 80 213 7.0 8.0 0.00 0.00 0.00 84 1012.3
20260903022901 80 215 8.0 9.0 0.00 0.00 0.00 83 1012.5
20260903022359 80 211 7.0 8.0 0.00 0.00 0.00 84 1012.6
20260903021858 80 211 7.0 8.0 0.00 0.00 0.00 84 1012.4
20260903021354 81 215 7.0 8.0 0.00 0.00 0.00 83 1012.5
20260903020853 81 214 8.0 9.0 0.00 0.00 0.00 82 1012.7
20260903020349 82 216 8.0 9.0 0.00 0.00 0.00 81 1012.5
20260903015843 82 214 10.0 11.0 0.00 0.00 0.00 81 1012.5
20260903015338 82 206 9.0 10.0 0.00 0.00 0.00 80 1012.6
20260903014833 82 202 10.0 11.0 0.00 0.00 0.00 80 1012.4
20260903014328 82 216 9.0 10.0 0.00 0.00 0.00 80 1012.5
20260903013823 82 211 9.0 10.0 0.00 0.00 0.00 80 1012.3
20260903013322 82 224 10.0 11.0 0.00 0.00 0.00 80 1012.6
20260903012821 82 211 9.0 10.0 0.00 0.00 0.00 80 1012.3
20260903012316 82 205 8.0 10.0 0.00 0.00 0.00 80 1012.3
20260903011815 82 212 9.0 10.0 0.00 0.00 0.00 80 1012.4
20260903011315 82 230 9.0 10.0 0.00 0.00 0.00 79 1012.2
20260903010810 82 212 9.0 10.0 0.00 0.00 0.00 79 1012.4
20260903010306 82 219 8.0 9.0 0.00 0.00 0.00 79 1012.3
20260903005804 82 213 8.0 10.0 0.00 0.00 0.00 80 1012.2
20260903005259 82 197 7.0 7.0 0.00 0.00 0.00 80 1012.0
20260903004755 82 213 7.0 7.0 0.00 0.00 0.00 79 1012.2
20260903004250 82 206 7.0 7.0 0.00 0.00 0.00 79 1012.3
20260903003746 82 203 7.0 9.0 0.00 0.00 0.00 79 1012.2
20260903003240 82 216 7.0 8.0 0.00 0.00 0.00 79 1012.0
20260903002735 82 206 6.0 7.0 0.00 0.00 0.00 80 1012.0
20260903002229 82 194 7.0 7.0 0.00 0.00 0.00 80 1012.2
20260903001725 82 207 6.0 6.0 0.00 0.00 0.00 79 1012.2
20260903001218 82 213 6.0 7.0 0.00 0.00 0.00 79 1012.3
20260903000714 82 217 5.0 6.0 0.00 0.00 0.00 78 1012.4
20260903000208 83 217 6.0 7.0 0.00 0.00 0.00 78 1012.1
20260902235706 84 217 6.0 7.0 0.00 0.00 0.00 76 1012.1
20260902235202 85 228 8.0 8.0 0.00 0.00 0.00 74 1012.4
20260902234702 85 213 7.0 8.0 0.00 0.00 0.00 74 1012.3
20260902234200 85 219 8.0 8.0 0.00 0.00 0.00 73 1012.6
20260902233655 86 220 8.0 9.0 0.00 0.00 0.00 73 1012.3
20260902233155 86 214 8.0 9.0 0.00 0.00 0.00 72 1012.3
20260902232654 86 219 8.0 8.0 0.00 0.00 0.00 71 1012.2
20260902232153 87 240 7.0 8.0 0.00 0.00 0.00 70 1012.3
20260902231647 87 209 10.0 11.0 0.00 0.00 0.00 69 1012.3
20260902231142 87 216 9.0 11.0 0.00 0.00 0.00 68 1012.1
20260902230638 87 224 9.0 10.0 0.00 0.00 0.00 68 1012.2
20260902230137 88 226 8.0 9.0 0.00 0.00 0.00 68 1012.3
20260902225632 88 215 10.0 11.0 0.00 0.00 0.00 66 1012.3
20260902225131 88 228 7.0 9.0 0.00 0.00 0.00 67 1012.4
20260902224630 89 205 6.0 6.0 0.00 0.00 0.00 68 1012.4
20260902224126 89 228 9.0 10.0 0.00 0.00 0.00 66 1012.1
20260902223622 89 206 12.0 14.0 0.00 0.00 0.00 64 1012.2
20260902223121 89 225 9.0 10.0 0.00 0.00 0.00 65 1012.2
20260902222620 89 211 11.0 11.0 0.00 0.00 0.00 64 1012.0
20260902222119 89 221 12.0 13.0 0.00 0.00 0.00 63 1012.2
20260902221613 89 217 11.0 13.0 0.00 0.00 0.00 63 1012.1
20260902221108 90 224 13.0 14.0 0.00 0.00 0.00 62 1012.2
20260902220604 90 210 10.0 10.0 0.00 0.00 0.00 64 1012.1
20260902220058 90 216 10.0 10.0 0.00 0.00 0.00 62 1012.3
20260902215555 90 219 12.0 14.0 0.00 0.00 0.00 61 1012.5
20260902215049 90 225 14.0 15.0 0.00 0.00 0.00 60 1012.2
20260902214544 90 213 14.0 15.0 0.00 0.00 0.00 60 1012.3
20260902214043 90 220 13.0 14.0 0.00 0.00 0.00 60 1012.2
20260902213539 90 227 10.0 11.0 0.00 0.00 0.00 62 1012.5
20260902213038 91 219 13.0 14.0 0.00 0.00 0.00 63 1012.5
20260902212534 91 207 14.0 15.0 0.00 0.00 0.00 61 1012.6
20260902212030 90 207 7.0 8.0 0.00 0.00 0.00 67 1012.5
20260902211526 91 216 9.0 9.0 0.00 0.00 0.00 63 1012.4
20260902211020 91 215 8.0 10.0 0.00 0.00 0.00 66 1012.3
20260902210515 91 233 12.0 14.0 0.00 0.00 0.00 62 1012.6
20260902210014 91 220 12.0 14.0 0.00 0.00 0.00 61 1012.5
20260902205508 91 209 11.0 13.0 0.00 0.00 0.00 62 1012.6
20260902205004 91 228 13.0 16.0 0.00 0.00 0.00 60 1012.6
20260902204503 91 235 14.0 17.0 0.00 0.00 0.00 60 1012.8
20260902203959 92 230 17.0 18.0 0.00 0.00 0.00 59 1012.7
20260902203454 92 222 14.0 15.0 0.00 0.00 0.00 60 1012.8
20260902202953 92 219 12.0 13.0 0.00 0.00 0.00 60 1012.8
20260902202449 91 219 12.0 14.0 0.00 0.00 0.00 62 1013.1
20260902201946 92 207 8.0 9.0 0.00 0.00 0.00 64 1012.8
20260902201441 92 222 11.0 13.0 0.00 0.00 0.00 63 1012.9
20260902200940 92 216 13.0 14.0 0.00 0.00 0.00 60 1013.1
20260902200435 92 234 13.0 16.0 0.00 0.00 0.00 60 1013.0
20260902195931 92 215 10.0 11.0 0.00 0.00 0.00 62 1013.3
20260902195426 92 201 7.0 8.0 0.00 0.00 0.00 67 1013.0
20260902194920 92 232 9.0 10.0 0.00 0.00 0.00 64 1013.3
20260902194419 92 221 13.0 14.0 0.00 0.00 0.00 61 1013.3
20260902193914 91 225 11.0 13.0 0.00 0.00 0.00 63 1013.3
20260902193411 91 214 15.0 16.0 0.00 0.00 0.00 62 1013.1
20260902192909 91 218 11.0 13.0 0.00 0.00 0.00 64 1013.4
20260902192408 91 218 13.0 16.0 0.00 0.00 0.00 62 1013.3
20260902191903 90 227 9.0 10.0 0.00 0.00 0.00 66 1013.4
20260902191359 91 221 12.0 14.0 0.00 0.00 0.00 63 1013.4
20260902190858 90 229 11.0 14.0 0.00 0.00 0.00 65 1013.6
20260902190353 91 215 13.0 16.0 0.00 0.00 0.00 63 1013.6
20260902185849 90 223 9.0 9.0 0.00 0.00 0.00 67 1013.6
20260902185345 90 223 10.0 11.0 0.00 0.00 0.00 65 1013.8
20260902184840 90 240 11.0 11.0 0.00 0.00 0.00 63 1013.8
20260902184335 90 227 9.0 11.0 0.00 0.00 0.00 67 1013.9
20260902183825 91 219 11.0 13.0 0.00 0.00 0.00 65 1013.6
20260902183321 90 224 10.0 11.0 0.00 0.00 0.00 66 1013.9
20260902182817 91 207 8.0 10.0 0.00 0.00 0.00 67 1013.8
20260902182313 91 218 9.0 9.0 0.00 0.00 0.00 66 1013.8
20260902181809 91 226 9.0 10.0 0.00 0.00 0.00 68 1013.9
20260902181304 91 234 10.0 11.0 0.00 0.00 0.00 64 1013.8
20260902180758 91 221 13.0 15.0 0.00 0.00 0.00 62 1014.1
20260902180254 91 223 10.0 11.0 0.00 0.00 0.00 65 1014.0
20260902175749 90 232 10.0 11.0 0.00 0.00 0.00 66 1013.8
20260902175245 91 206 11.0 13.0 0.00 0.00 0.00 65 1013.9
20260902174740 90 235 11.0 11.0 0.00 0.00 0.00 64 1014.2
20260902174236 90 191 10.0 11.0 0.00 0.00 0.00 67 1014.6
20260902173731 89 203 9.0 9.0 0.00 0.00 0.00 67 1014.6
20260902173226 89 216 9.0 10.0 0.00 0.00 0.00 68 1014.3
20260902172720 90 222 7.0 9.0 0.00 0.00 0.00 69 1014.6
20260902172220 90 241 9.0 9.0 0.00 0.00 0.00 69 1014.6
20260902171715 89 220 7.0 7.0 0.00 0.00 0.00 70 1014.6
20260902171210 88 237 11.0 13.0 0.00 0.00 0.00 66 1014.5
20260902170707 88 206 10.0 10.0 0.00 0.00 0.00 70 1014.8
20260902170202 88 225 9.0 9.0 0.00 0.00 0.00 72 1014.9
20260902165656 88 211 9.0 10.0 0.00 0.00 0.00 71 1014.9
20260902165150 88 221 10.0 11.0 0.00 0.00 0.00 70 1014.8
20260902164646 88 217 8.0 9.0 0.00 0.00 0.00 72 1015.1
20260902164145 88 236 7.0 9.0 0.00 0.00 0.00 73 1015.1
20260902163640 88 191 11.0 13.0 0.00 0.00 0.00 72 1014.9
20260902163139 88 200 11.0 13.0 0.00 0.00 0.00 72 1015.1
20260902162638 88 234 10.0 11.0 0.00 0.00 0.00 71 1015.1
20260902162133 87 229 9.0 10.0 0.00 0.00 0.00 70 1015.1
20260902161628 87 230 6.0 7.0 0.00 0.00 0.00 71 1015.4
20260902161124 86 223 9.0 9.0 0.00 0.00 0.00 74 1015.4
20260902160620 86 209 7.0 8.0 0.00 0.00 0.00 75 1015.3
20260902160115 86 219 7.0 8.0 0.00 0.00 0.00 75 1015.3
20260902155613 87 198 6.0 7.0 0.00 0.00 0.00 75 1015.2
20260902155112 86 209 4.0 5.0 0.00 0.00 0.00 77 1015.2
20260902154608 85 215 7.0 8.0 0.00 0.00 0.00 76 1015.3
20260902154102 85 217 7.0 8.0 0.00 0.00 0.00 75 1015.4
20260902153600 85 230 5.0 7.0 0.00 0.00 0.00 77 1015.3
20260902153056 85 247 5.0 6.0 0.00 0.00 0.00 75 1015.4
20260902152553 85 239 7.0 9.0 0.00 0.00 0.00 75 1015.1
20260902152048 85 229 7.0 8.0 0.00 0.00 0.00 76 1015.2
20260902151544 85 224 5.0 6.0 0.00 0.00 0.00 79 1015.3
20260902151043 84 222 6.0 7.0 0.00 0.00 0.00 78 1015.2
20260902150538 84 226 5.0 7.0 0.00 0.00 0.00 79 1015.1
20260902150033 84 216 7.0 8.0 0.00 0.00 0.00 78 1015.0
20260902145523 85 230 7.0 8.0 0.00 0.00 0.00 75 1015.1
20260902145023 84 226 8.0 9.0 0.00 0.00 0.00 77 1014.9
20260902144519 84 216 10.0 11.0 0.00 0.00 0.00 76 1015.0
20260902144014 84 218 10.0 11.0 0.00 0.00 0.00 77 1014.9
20260902143509 83 228 9.0 11.0 0.00 0.00 0.00 80 1015.0
20260902143004 83 232 8.0 9.0 0.00 0.00 0.00 80 1015.1
20260902142500 82 225 10.0 10.0 0.00 0.00 0.00 79 1015.1
20260902141955 83 224 8.0 10.0 0.00 0.00 0.00 80 1014.9
20260902141449 82 228 8.0 9.0 0.00 0.00 0.00 82 1014.9
20260902140944 82 206 7.0 9.0 0.00 0.00 0.00 83 1014.9
20260902140439 81 230 8.0 9.0 0.00 0.00 0.00 83 1014.7
20260902135939 81 234 7.0 7.0 0.00 0.00 0.00 84 1015.0
20260902135435 80 227 9.0 11.0 0.00 0.00 0.00 84 1015.0
20260902134933 80 220 8.0 9.0 0.00 0.00 0.00 85 1015.1
20260902134430 80 216 7.0 8.0 0.00 0.00 0.00 86 1014.9
20260902133924 80 222 7.0 8.0 0.00 0.00 0.00 86 1014.9
20260902133419 79 218 6.0 7.0 0.00 0.00 0.00 87 1014.8
20260902132914 79 237 8.0 9.0 0.00 0.00 0.00 86 1014.9
20260902132409 79 226 8.0 9.0 0.00 0.00 0.00 87 1015.0
20260902131904 78 238 6.0 7.0 0.00 0.00 0.00 88 1014.9
20260902131401 78 231 7.0 7.0 0.00 0.00 0.00 88 1015.1
20260902130900 78 229 9.0 10.0 0.00 0.00 0.00 88 1015.1
20260902130356 78 226 8.0 9.0 0.00 0.00 0.00 88 1014.9
20260902125851 77 206 6.0 7.0 0.00 0.00 0.00 89 1015.0
20260902125347 77 220 8.0 9.0 0.00 0.00 0.00 89 1015.1
20260902124843 77 211 6.0 7.0 0.00 0.00 0.00 90 1014.9
20260902124339 77 229 6.0 8.0 0.00 0.00 0.00 90 1014.8
20260902123833 77 218 8.0 8.0 0.00 0.00 0.00 90 1014.9
20260902123330 76 215 6.0 7.0 0.00 0.00 0.00 91 1014.7
20260902122828 76 214 4.0 6.0 0.00 0.00 0.00 91 1014.7
20260902122325 76 223 5.0 6.0 0.00 0.00 0.00 91 1014.8
20260902121823 75 225 5.0 7.0 0.00 0.00 0.00 91 1014.9
20260902121313 75 217 5.0 6.0 0.00 0.00 0.00 91 1014.8
20260902120808 75 239 4.0 5.0 0.00 0.00 0.00 92 1014.9
20260902120305 75 223 5.0 5.0 0.00 0.00 0.00 91 1015.0
20260902115759 75 209 5.0 6.0 0.00 0.00 0.00 91 1015.0
20260902115255 75 218 4.0 5.0 0.00 0.00 0.00 92 1014.9
20260902114746 75 229 5.0 6.0 0.00 0.00 0.00 92 1014.9
20260902114241 74 224 5.0 6.0 0.00 0.00 0.00 92 1014.7
20260902113736 74 228 5.0 6.0 0.00 0.00 0.00 92 1014.7
20260902113231 74 224 5.0 5.0 0.00 0.00 0.00 92 1014.8
20260902112730 73 216 5.0 6.0 0.00 0.00 0.00 92 1014.3
20260902112228 73 223 4.0 5.0 0.00 0.00 0.00 92 1014.1
20260902111723 73 231 4.0 5.0 0.00 0.00 0.00 92 1014.3
20260902111219 73 209 4.0 5.0 0.00 0.00 0.00 92 1014.6
20260902110714 73 206 3.0 5.0 0.00 0.00 0.00 92 1014.7
20260902110210 73 211 4.0 5.0 0.00 0.00 0.00 92 1014.8
20260902105710 73 223 3.0 3.0 0.00 0.00 0.00 92 1014.6
20260902105205 74 228 3.0 3.0 0.00 0.00 0.00 92 1014.9
20260902104700 74 222 4.0 5.0 0.00 0.00 0.00 92 1014.8
20260902104157 74 225 3.0 3.0 0.00 0.00 0.00 92 1014.5
20260902103655 74 217 4.0 5.0 0.00 0.00 0.00 92 1014.5
20260902103150 73 220 5.0 6.0 0.00 0.00 0.00 92 1014.7
20260902102646 73 222 5.0 6.0 0.00 0.00 0.00 92 1014.6
20260902102144 73 216 3.0 5.0 0.00 0.00 0.00 92 1014.7
20260902101639 73 208 3.0 3.0 0.00 0.00 0.00 92 1014.6
20260902101138 73 214 4.0 5.0 0.00 0.00 0.00 92 1014.7
20260902100632 73 208 4.0 5.0 0.00 0.00 0.00 92 1014.5
20260902100122 73 212 5.0 5.0 0.00 0.00 0.00 92 1014.5
20260902095621 74 212 3.0 3.0 0.00 0.00 0.00 92 1014.6
20260902095120 74 218 4.0 5.0 0.00 0.00 0.00 92 1014.3
20260902094616 74 211 4.0 5.0 0.00 0.00 0.00 92 1014.5
20260902094113 74 207 5.0 5.0 0.00 0.00 0.00 92 1014.5
20260902093611 74 211 5.0 5.0 0.00 0.00 0.00 92 1014.6
20260902093101 74 202 5.0 6.0 0.00 0.00 0.00 92 1014.3
20260902092601 74 202 5.0 6.0 0.00 0.00 0.00 92 1014.3
20260902092056 74 210 4.0 5.0 0.00 0.00 0.00 92 1014.3
20260902091551 73 199 5.0 6.0 0.00 0.00 0.00 92 1014.3
20260902091047 73 194 5.0 6.0 0.00 0.00 0.00 92 1014.5
20260902090543 73 192 5.0 6.0 0.00 0.00 0.00 92 1014.6
20260902090042 73 196 5.0 6.0 0.00 0.00 0.00 92 1014.3
20260902085536 73 200 5.0 6.0 0.00 0.00 0.00 92 1014.3
20260902085031 73 194 5.0 6.0 0.00 0.00 0.00 92 1014.5
20260902084522 73 189 4.0 5.0 0.00 0.00 0.00 92 1014.3
20260902084017 73 188 3.0 3.0 0.00 0.00 0.00 92 1014.3
20260902083513 73 191 3.0 3.0 0.00 0.00 0.00 92 1014.3
20260902083007 73 191 4.0 5.0 0.00 0.00 0.00 92 1014.1
20260902082503 73 184 5.0 6.0 0.00 0.00 0.00 92 1014.3
20260902081959 73 184 4.0 5.0 0.00 0.00 0.00 92 1014.5
20260902081455 74 181 4.0 5.0 0.00 0.00 0.00 92 1014.2
20260902080949 73 165 1.0 1.0 0.00 0.00 0.00 92 1014.2
20260902080446 73 106 0.0 0.0 0.00 0.00 0.00 92 1014.3
20260902075945 74 101 0.0 0.0 0.00 0.00 0.00 92 1014.2
20260902075441 74 109 0.0 0.0 0.00 0.00 0.00 92 1014.2
20260902074936 74 46 0.0 0.0 0.00 0.00 0.00 92 1014.0
20260902074432 73 35 0.0 1.0 0.00 0.00 0.00 92 1014.0
20260902073927 74 18 1.0 1.0 0.00 0.00 0.00 92 1014.3
20260902073423 75 155 1.0 1.0 0.00 0.00 0.00 92 1014.0
20260902072919 75 183 2.0 2.0 0.00 0.00 0.00 92 1014.0
20260902072414 74 182 3.0 3.0 0.00 0.00 0.00 92 1013.8
20260902071911 74 173 5.0 6.0 0.00 0.00 0.00 92 1013.7
20260902071410 74 188 5.0 5.0 0.00 0.00 0.00 92 1013.7
20260902070907 74 183 3.0 3.0 0.00 0.00 0.00 92 1013.8
20260902070402 74 180 3.0 3.0 0.00 0.00 0.00 92 1014.0
20260902065901 74 187 3.0 3.0 0.00 0.00 0.00 92 1013.7
20260902065355 74 180 3.0 3.0 0.00 0.00 0.00 92 1013.8
20260902064850 74 177 4.0 5.0 0.00 0.00 0.00 92 1013.7
20260902064346 73 184 5.0 5.0 0.00 0.00 0.00 92 1013.9
20260902063837 73 195 6.0 7.0 0.00 0.00 0.00 92 1013.7
20260902063336 74 194 5.0 6.0 0.00 0.00 0.00 92 1013.8
20260902062830 75 186 5.0 5.0 0.00 0.00 0.00 92 1014.0
20260902062325 75 175 4.0 5.0 0.00 0.00 0.00 92 1013.8
20260902061825 75 183 4.0 5.0 0.00 0.00 0.00 92 1014.0
20260902061320 75 177 4.0 5.0 0.00 0.00 0.00 91 1014.0
20260902060817 75 172 4.0 5.0 0.00 0.00 0.00 90 1014.0
20260902060312 75 177 2.0 2.0 0.00 0.00 0.00 90 1014.1
20260902055807 75 158 1.0 1.0 0.00 0.00 0.00 90 1014.0
20260902055258 75 160 2.0 2.0 0.00 0.00 0.00 90 1014.5
20260902054753 75 167 3.0 3.0 0.00 0.00 0.00 90 1014.6
20260902054248 75 166 3.0 3.0 0.00 0.00 0.00 90 1014.3
20260902053743 75 161 2.0 2.0 0.00 0.00 0.00 90 1014.3
20260902053242 73 176 3.0 3.0 0.00 0.00 0.00 91 1014.5
20260902052737 72 178 3.0 3.0 0.00 0.00 0.00 91 1014.3
20260902052232 72 183 2.0 2.0 0.00 0.00 0.00 90 1014.5
20260902051732 74 164 2.0 2.0 0.00 0.00 0.00 89 1014.3
20260902051226 73 165 2.0 2.0 0.00 0.00 0.00 90 1014.3
20260902050721 73 155 0.0 0.0 0.00 0.00 0.00 90 1014.5
20260902050216 74 99 0.0 0.0 0.00 0.00 0.00 89 1014.2
20260902045711 74 67 0.0 0.0 0.00 0.00 0.00 89 1014.2
20260902045207 74 73 0.0 0.0 0.00 0.00 0.00 89 1014.3
20260902044702 74 64 0.0 0.0 0.00 0.00 0.00 88 1014.2
20260902044158 73 45 0.0 0.0 0.00 0.00 0.00 89 1014.2
20260902043653 73 355 0.0 0.0 0.00 0.00 0.00 89 1014.5
20260902043148 73 328 0.0 0.0 0.00 0.00 0.00 89 1014.3
20260902042647 73 327 0.0 0.0 0.00 0.00 0.00 89 1014.1
20260902042143 73 326 0.0 0.0 0.00 0.00 0.00 89 1014.3
20260902041643 73 292 0.0 0.0 0.00 0.00 0.00 89 1014.2
20260902041137 73 277 0.0 0.0 0.00 0.00 0.00 90 1014.1
20260902040637 72 210 0.0 0.0 0.00 0.00 0.00 90 1014.0
20260902040132 73 207 0.0 1.0 0.00 0.00 0.00 89 1014.0
20260902035630 73 205 2.0 2.0 0.00 0.00 0.00 90 1013.9
20260902035125 73 199 2.0 2.0 0.00 0.00 0.00 89 1014.1
20260902034624 74 193 3.0 3.0 0.00 0.00 0.00 88 1014.0